Location: Asheville, NC
(35.6000°N, 82.5500°W)
Time: 11:55:51

KKS-1 - Pass Details

Date: 16 March 2018
Orbit: 638 x 650 km, 98.4° (Epoch: 23 March)

Event Time Altitude Azimuth Distance (km) Brightness Sun altitude
Rises 05:36:53 0° 140° (SE) 2,951 ? -25.4°
Reaches altitude 10° 05:39:19 10° 129° (SE) 2,045 ? -25.0°
Maximum altitude 05:43:08 28° 70° (ENE) 1,210 ? -24.2°
Drops below altitude 10° 05:46:57 10° 11° (NNE) 2,057 ? -23.5°
Sets 05:49:24 0° 0° (N) 2,971 ? -23.0°
